| time (UTC) | temp C | wind direction | speed KPH | gust KPH | rain 1hr cm | rain 24hr cm | rain mn cm | humidity % | barometer mb |
| 20260504013555 | 21 | 0 | 0.0 | 6.4 | 0.00 | 0.00 | 0.00 | 52 | 1015.2 |
| 20260504013057 | 21 | 0 | 0.0 | 4.8 | 0.00 | 0.00 | 0.00 | 51 | 1015.2 |
| 20260504012555 | 21 | 50 | 0.0 | 9.7 | 0.00 | 0.00 | 0.00 | 50 | 1015.1 |
| 20260504012055 | 21 | 0 | 0.0 | 9.7 | 0.00 | 0.00 | 0.00 | 50 | 1015.0 |
| 20260504011553 | 22 | 45 | 1.6 | 6.4 | 0.00 | 0.00 | 0.00 | 50 | 1015.0 |
| 20260504011054 | 22 | 0 | 0.0 | 6.4 | 0.00 | 0.00 | 0.00 | 50 | 1014.9 |
| 20260504010556 | 22 | 63 | 1.6 | 6.4 | 0.00 | 0.00 | 0.00 | 48 | 1015.0 |
| 20260504010101 | 22 | 71 | 1.6 | 6.4 | 0.00 | 0.00 | 0.00 | 49 | 1014.9 |
| 20260504005556 | 22 | 0 | 0.0 | 6.4 | 0.00 | 0.00 | 0.00 | 47 | 1014.9 |
| 20260504005055 | 22 | 0 | 0.0 | 4.8 | 0.00 | 0.00 | 0.00 | 47 | 1014.9 |
| 20260504004553 | 22 | 56 | 0.0 | 4.8 | 0.00 | 0.00 | 0.00 | 47 | 1015.0 |
| 20260504004055 | 22 | 0 | 0.0 | 8.0 | 0.00 | 0.00 | 0.00 | 46 | 1014.9 |
| 20260504003555 | 23 | 0 | 0.0 | 8.0 | 0.00 | 0.00 | 0.00 | 46 | 1015.0 |
| 20260504003054 | 23 | 0 | 0.0 | 3.2 | 0.00 | 0.00 | 0.00 | 45 | 1015.1 |
| 20260504002555 | 23 | 0 | 0.0 | 3.2 | 0.00 | 0.00 | 0.00 | 44 | 1015.2 |
| 20260504002055 | 23 | 0 | 0.0 | 3.2 | 0.00 | 0.00 | 0.00 | 43 | 1015.1 |
| 20260504001600 | 23 | 40 | 0.0 | 3.2 | 0.00 | 0.00 | 0.00 | 41 | 1015.2 |
| 20260504001055 | 23 | 0 | 0.0 | 4.8 | 0.00 | 0.00 | 0.00 | 40 | 1015.1 |
| 20260504000555 | 24 | 243 | 0.0 | 11.3 | 0.00 | 0.00 | 0.00 | 39 | 1015.1 |
| 20260504000100 | 24 | 0 | 0.0 | 11.3 | 0.00 | 0.00 | 0.00 | 39 | 1015.4 |
| 20260503235555 | 24 | 185 | 1.6 | 11.3 | 0.00 | 0.00 | 0.00 | 38 | 1015.5 |
| 20260503235055 | 24 | 0 | 0.0 | 4.8 | 0.00 | 0.00 | 0.00 | 38 | 1015.5 |
| 20260503234555 | 24 | 0 | 0.0 | 11.3 | 0.00 | 0.00 | 0.00 | 37 | 1015.5 |
| 20260503234055 | 25 | 191 | 1.6 | 11.3 | 0.00 | 0.00 | 0.00 | 36 | 1015.6 |
| 20260503233558 | 25 | 130 | 1.6 | 11.3 | 0.00 | 0.00 | 0.00 | 37 | 1015.5 |
| 20260503233055 | 25 | 37 | 1.6 | 4.8 | 0.00 | 0.00 | 0.00 | 36 | 1015.3 |
| 20260503232557 | 25 | 314 | 1.6 | 9.7 | 0.00 | 0.00 | 0.00 | 37 | 1015.2 |
| 20260503232054 | 25 | 0 | 0.0 | 9.7 | 0.00 | 0.00 | 0.00 | 36 | 1015.2 |
| 20260503231558 | 26 | 203 | 1.6 | 8.0 | 0.00 | 0.00 | 0.00 | 35 | 1015.2 |
| 20260503231056 | 26 | 204 | 1.6 | 8.0 | 0.00 | 0.00 | 0.00 | 36 | 1015.4 |
| 20260503230556 | 26 | 121 | 0.0 | 6.4 | 0.00 | 0.00 | 0.00 | 36 | 1015.4 |
| 20260503230113 | 26 | 49 | 0.0 | 6.4 | 0.00 | 0.00 | 0.00 | 34 | 1015.5 |
| 20260503225555 | 26 | 0 | 0.0 | 16.1 | 0.00 | 0.00 | 0.00 | 34 | 1015.6 |
| 20260503225055 | 26 | 0 | 1.6 | 16.1 | 0.00 | 0.00 | 0.00 | 36 | 1015.6 |
| 20260503224554 | 26 | 87 | 1.6 | 8.0 | 0.00 | 0.00 | 0.00 | 35 | 1015.6 |
| 20260503224055 | 26 | 347 | 1.6 | 12.9 | 0.00 | 0.00 | 0.00 | 36 | 1015.6 |
| 20260503223555 | 26 | 209 | 1.6 | 12.9 | 0.00 | 0.00 | 0.00 | 36 | 1015.8 |
| 20260503223109 | 26 | 217 | 3.2 | 11.3 | 0.00 | 0.00 | 0.00 | 36 | 1015.9 |
| 20260503222554 | 26 | 67 | 1.6 | 11.3 | 0.00 | 0.00 | 0.00 | 36 | 1015.8 |
| 20260503222054 | 26 | 178 | 3.2 | 11.3 | 0.00 | 0.00 | 0.00 | 35 | 1015.8 |
| 20260503221555 | 26 | 265 | 1.6 | 8.0 | 0.00 | 0.00 | 0.00 | 36 | 1015.8 |
| 20260503221055 | 27 | 50 | 1.6 | 8.0 | 0.00 | 0.00 | 0.00 | 34 | 1015.9 |
| 20260503220555 | 27 | 0 | 1.6 | 6.4 | 0.00 | 0.00 | 0.00 | 35 | 1015.9 |
| 20260503220057 | 27 | 65 | 1.6 | 11.3 | 0.00 | 0.00 | 0.00 | 36 | 1016.0 |
| 20260503215554 | 27 | 0 | 0.0 | 12.9 | 0.00 | 0.00 | 0.00 | 36 | 1016.1 |
| 20260503215054 | 27 | 158 | 1.6 | 12.9 | 0.00 | 0.00 | 0.00 | 37 | 1016.2 |
| 20260503214559 | 27 | 105 | 1.6 | 9.7 | 0.00 | 0.00 | 0.00 | 34 | 1016.3 |
| 20260503214055 | 27 | 352 | 1.6 | 8.0 | 0.00 | 0.00 | 0.00 | 33 | 1016.3 |
| 20260503213555 | 27 | 36 | 1.6 | 12.9 | 0.00 | 0.00 | 0.00 | 33 | 1016.4 |
| 20260503213056 | 27 | 63 | 1.6 | 12.9 | 0.00 | 0.00 | 0.00 | 36 | 1016.5 |
| 20260503212555 | 27 | 199 | 1.6 | 12.9 | 0.00 | 0.00 | 0.00 | 34 | 1016.6 |
| 20260503212054 | 27 | 53 | 1.6 | 9.7 | 0.00 | 0.00 | 0.00 | 34 | 1016.7 |
| 20260503211554 | 27 | 28 | 3.2 | 11.3 | 0.00 | 0.00 | 0.00 | 35 | 1017.0 |
| 20260503211055 | 27 | 40 | 1.6 | 11.3 | 0.00 | 0.00 | 0.00 | 34 | 1017.0 |
| 20260503210556 | 28 | 229 | 1.6 | 11.3 | 0.00 | 0.00 | 0.00 | 37 | 1017.0 |
| 20260503210056 | 28 | 75 | 1.6 | 11.3 | 0.00 | 0.00 | 0.00 | 34 | 1017.1 |
| 20260503205555 | 28 | 16 | 3.2 | 11.3 | 0.00 | 0.00 | 0.00 | 38 | 1017.2 |
| 20260503205055 | 28 | 199 | 1.6 | 6.4 | 0.00 | 0.00 | 0.00 | 35 | 1017.3 |
| 20260503204555 | 28 | 58 | 1.6 | 6.4 | 0.00 | 0.00 | 0.00 | 37 | 1017.2 |
| 20260503204054 | 28 | 360 | 1.6 | 6.4 | 0.00 | 0.00 | 0.00 | 41 | 1017.3 |
| 20260503203555 | 28 | 65 | 1.6 | 6.4 | 0.00 | 0.00 | 0.00 | 33 | 1017.5 |
| 20260503203053 | 28 | 136 | 1.6 | 9.7 | 0.00 | 0.00 | 0.00 | 35 | 1017.8 |
| 20260503202555 | 28 | 206 | 1.6 | 9.7 | 0.00 | 0.00 | 0.00 | 36 | 1017.7 |
| 20260503202054 | 28 | 65 | 1.6 | 8.0 | 0.00 | 0.00 | 0.00 | 38 | 1017.7 |
| 20260503201559 | 28 | 78 | 1.6 | 8.0 | 0.00 | 0.00 | 0.00 | 35 | 1017.8 |
| 20260503201055 | 28 | 78 | 1.6 | 8.0 | 0.00 | 0.00 | 0.00 | 38 | 1018.0 |
| 20260503200555 | 28 | 0 | 3.2 | 8.0 | 0.00 | 0.00 | 0.00 | 35 | 1017.9 |
| 20260503200057 | 28 | 256 | 1.6 | 11.3 | 0.00 | 0.00 | 0.00 | 36 | 1018.1 |
| 20260503195554 | 28 | 190 | 1.6 | 11.3 | 0.00 | 0.00 | 0.00 | 41 | 1018.1 |
| 20260503195056 | 28 | 142 | 1.6 | 9.7 | 0.00 | 0.00 | 0.00 | 34 | 1018.3 |
| 20260503194624 | 28 | 0 | 3.2 | 12.9 | 0.00 | 0.00 | 0.00 | 34 | 1018.3 |
| 20260503194055 | 28 | 118 | 1.6 | 12.9 | 0.00 | 0.00 | 0.00 | 37 | 1018.4 |
| 20260503193557 | 28 | 140 | 1.6 | 9.7 | 0.00 | 0.00 | 0.00 | 33 | 1018.4 |
| 20260503193056 | 28 | 0 | 0.0 | 9.7 | 0.00 | 0.00 | 0.00 | 39 | 1018.5 |
| 20260503192554 | 28 | 65 | 4.8 | 9.7 | 0.00 | 0.00 | 0.00 | 34 | 1018.5 |
| 20260503192057 | 28 | 132 | 0.0 | 12.9 | 0.00 | 0.00 | 0.00 | 40 | 1018.6 |
| 20260503191612 | 27 | 43 | 1.6 | 12.9 | 0.00 | 0.00 | 0.00 | 33 | 1018.7 |
| 20260503191054 | 28 | 0 | 1.6 | 11.3 | 0.00 | 0.00 | 0.00 | 33 | 1018.9 |
| 20260503190554 | 27 | 200 | 0.0 | 4.8 | 0.00 | 0.00 | 0.00 | 37 | 1019.0 |
| 20260503190100 | 28 | 45 | 1.6 | 4.8 | 0.00 | 0.00 | 0.00 | 37 | 1019.1 |
| 20260503185555 | 28 | 0 | 0.0 | 4.8 | 0.00 | 0.00 | 0.00 | 38 | 1019.3 |
| 20260503185059 | 28 | 17 | 0.0 | 6.4 | 0.00 | 0.00 | 0.00 | 40 | 1019.2 |
| 20260503184559 | 28 | 142 | 0.0 | 8.0 | 0.00 | 0.00 | 0.00 | 38 | 1019.3 |
| 20260503184055 | 28 | 36 | 1.6 | 8.0 | 0.00 | 0.00 | 0.00 | 38 | 1019.4 |
| 20260503183555 | 27 | 294 | 1.6 | 9.7 | 0.00 | 0.00 | 0.00 | 36 | 1019.4 |
| 20260503183105 | 27 | 26 | 0.0 | 9.7 | 0.00 | 0.00 | 0.00 | 39 | 1019.6 |
| 20260503182554 | 27 | 0 | 3.2 | 9.7 | 0.00 | 0.00 | 0.00 | 39 | 1019.7 |
| 20260503182055 | 28 | 120 | 1.6 | 8.0 | 0.00 | 0.00 | 0.00 | 35 | 1019.9 |
| 20260503181609 | 27 | 39 | 1.6 | 9.7 | 0.00 | 0.00 | 0.00 | 39 | 1019.9 |
| 20260503181057 | 27 | 77 | 3.2 | 9.7 | 0.00 | 0.00 | 0.00 | 38 | 1019.8 |
| 20260503180554 | 28 | 69 | 0.0 | 9.7 | 0.00 | 0.00 | 0.00 | 43 | 1020.0 |
| 20260503180058 | 27 | 75 | 1.6 | 12.9 | 0.00 | 0.00 | 0.00 | 41 | 1020.0 |
| 20260503175554 | 27 | 166 | 3.2 | 12.9 | 0.00 | 0.00 | 0.00 | 38 | 1020.1 |
| 20260503175056 | 27 | 38 | 1.6 | 6.4 | 0.00 | 0.00 | 0.00 | 39 | 1020.2 |
| 20260503174621 | 27 | 0 | 0.0 | 8.0 | 0.00 | 0.00 | 0.00 | 46 | 1020.3 |
| 20260503174057 | 27 | 69 | 0.0 | 9.7 | 0.00 | 0.00 | 0.00 | 43 | 1020.3 |
| 20260503173555 | 27 | 127 | 1.6 | 9.7 | 0.00 | 0.00 | 0.00 | 38 | 1020.5 |
| 20260503173105 | 27 | 111 | 1.6 | 4.8 | 0.00 | 0.00 | 0.00 | 38 | 1020.4 |
| 20260503172554 | 27 | 148 | 0.0 | 4.8 | 0.00 | 0.00 | 0.00 | 45 | 1020.5 |
| 20260503172054 | 27 | 51 | 1.6 | 4.8 | 0.00 | 0.00 | 0.00 | 42 | 1020.9 |
| 20260503171554 | 27 | 53 | 0.0 | 6.4 | 0.00 | 0.00 | 0.00 | 43 | 1020.9 |
| 20260503171056 | 27 | 154 | 1.6 | 6.4 | 0.00 | 0.00 | 0.00 | 42 | 1020.9 |
| 20260503170556 | 27 | 196 | 1.6 | 6.4 | 0.00 | 0.00 | 0.00 | 44 | 1021.0 |
| 20260503170105 | 27 | 0 | 0.0 | 6.4 | 0.00 | 0.00 | 0.00 | 45 | 1021.1 |
| 20260503150556 | 22 | 0 | 0.0 | 4.8 | 0.00 | 0.00 | 0.00 | 56 | 1021.9 |
| 20260503131055 | 13 | 0 | 0.0 | 0.0 | 0.00 | 0.00 | 0.00 | 85 | 1021.4 |
| 20260503130555 | 13 | 0 | 0.0 | 0.0 | 0.00 | 0.00 | 0.00 | 87 | 1021.4 |
| 20260503130104 | 12 | 0 | 0.0 | 0.0 | 0.00 | 0.00 | 0.00 | 88 | 1021.5 |
| 20260503120128 | 8 | 0 | 0.0 | 0.0 | 0.00 | 0.00 | 0.00 | 86 | 1020.6 |
| 20260503110554 | 9 | 0 | 0.0 | 0.0 | 0.00 | 0.00 | 0.00 | 85 | 1020.3 |
| 20260503081600 | 11 | 0 | 0.0 | 0.0 | 0.00 | 0.00 | 0.00 | 84 | 1019.9 |
| 20260503081056 | 11 | 0 | 0.0 | 0.0 | 0.00 | 0.00 | 0.00 | 84 | 1019.9 |
| 20260503080556 | 11 | 0 | 0.0 | 0.0 | 0.00 | 0.00 | 0.00 | 84 | 1019.9 |
| 20260503072558 | 11 | 0 | 0.0 | 0.0 | 0.00 | 0.00 | 0.00 | 83 | 1020.3 |
| 20260503072056 | 11 | 0 | 0.0 | 0.0 | 0.00 | 0.00 | 0.00 | 83 | 1020.3 |
| 20260503071557 | 11 | 0 | 0.0 | 0.0 | 0.00 | 0.00 | 0.00 | 83 | 1020.4 |
| 20260503071056 | 11 | 0 | 0.0 | 0.0 | 0.00 | 0.00 | 0.00 | 83 | 1020.5 |
| 20260503070556 | 11 | 0 | 0.0 | 0.0 | 0.00 | 0.00 | 0.00 | 82 | 1020.4 |
| 20260503055056 | 13 | 0 | 0.0 | 0.0 | 0.00 | 0.00 | 0.00 | 79 | 1020.3 |
| 20260503054559 | 13 | 0 | 0.0 | 0.0 | 0.00 | 0.00 | 0.00 | 80 | 1020.5 |
| 20260503054056 | 13 | 0 | 0.0 | 0.0 | 0.00 | 0.00 | 0.00 | 80 | 1020.3 |
| 20260503053555 | 13 | 0 | 0.0 | 0.0 | 0.00 | 0.00 | 0.00 | 80 | 1020.3 |
| 20260503053053 | 13 | 0 | 0.0 | 0.0 | 0.00 | 0.00 | 0.00 | 80 | 1020.3 |
| 20260503052556 | 13 | 0 | 0.0 | 0.0 | 0.00 | 0.00 | 0.00 | 80 | 1020.3 |
| 20260503052055 | 13 | 0 | 0.0 | 0.0 | 0.00 | 0.00 | 0.00 | 80 | 1020.2 |
| 20260503051555 | 13 | 0 | 0.0 | 0.0 | 0.00 | 0.00 | 0.00 | 80 | 1020.2 |
| 20260503051055 | 13 | 0 | 0.0 | 0.0 | 0.00 | 0.00 | 0.00 | 79 | 1020.3 |
| 20260503050557 | 13 | 0 | 0.0 | 0.0 | 0.00 | 0.00 | 0.00 | 79 | 1020.2 |
| 20260503050058 | 13 | 0 | 0.0 | 0.0 | 0.00 | 0.00 | 0.00 | 78 | 1020.1 |
| 20260503045556 | 13 | 0 | 0.0 | 0.0 | 0.00 | 0.00 | 0.00 | 77 | 1020.1 |
| 20260503045056 | 13 | 0 | 0.0 | 0.0 | 0.00 | 0.00 | 0.00 | 76 | 1020.0 |
| 20260503044613 | 13 | 0 | 0.0 | 0.0 | 0.00 | 0.00 | 0.00 | 76 | 1020.1 |
| 20260503044121 | 13 | 0 | 0.0 | 0.0 | 0.00 | 0.00 | 0.00 | 76 | 1020.0 |
| 20260503043556 | 13 | 0 | 0.0 | 0.0 | 0.00 | 0.00 | 0.00 | 76 | 1020.0 |
| 20260503043058 | 14 | 0 | 0.0 | 0.0 | 0.00 | 0.00 | 0.00 | 76 | 1020.0 |
| 20260503042552 | 14 | 0 | 0.0 | 0.0 | 0.00 | 0.00 | 0.00 | 75 | 1020.0 |
| 20260503042055 | 14 | 0 | 0.0 | 1.6 | 0.00 | 0.00 | 0.00 | 75 | 1020.2 |
| 20260503041611 | 14 | 0 | 0.0 | 1.6 | 0.00 | 0.00 | 0.00 | 75 | 1020.2 |
| 20260503041055 | 14 | 0 | 0.0 | 0.0 | 0.00 | 0.00 | 0.00 | 75 | 1020.2 |
| 20260503040555 | 14 | 0 | 0.0 | 0.0 | 0.00 | 0.00 | 0.00 | 76 | 1020.2 |
| 20260503040057 | 13 | 0 | 0.0 | 0.0 | 0.00 | 0.00 | 0.00 | 77 | 1020.2 |
| 20260503035600 | 14 | 0 | 0.0 | 0.0 | 0.00 | 0.00 | 0.00 | 76 | 1020.3 |
| 20260503035057 | 14 | 0 | 0.0 | 0.0 | 0.00 | 0.00 | 0.00 | 74 | 1020.3 |
| 20260503034555 | 14 | 0 | 0.0 | 0.0 | 0.00 | 0.00 | 0.00 | 73 | 1020.3 |
| 20260503034056 | 14 | 0 | 0.0 | 0.0 | 0.00 | 0.00 | 0.00 | 73 | 1020.1 |
| 20260503033555 | 14 | 0 | 0.0 | 0.0 | 0.00 | 0.00 | 0.00 | 73 | 1020.0 |
| 20260503033114 | 14 | 0 | 0.0 | 0.0 | 0.00 | 0.00 | 0.00 | 73 | 1020.1 |
| 20260503032555 | 14 | 0 | 0.0 | 0.0 | 0.00 | 0.00 | 0.00 | 73 | 1020.1 |
| 20260503032055 | 14 | 0 | 0.0 | 0.0 | 0.00 | 0.00 | 0.00 | 74 | 1019.9 |
| 20260503031553 | 13 | 0 | 0.0 | 0.0 | 0.00 | 0.00 | 0.00 | 76 | 1019.9 |
| 20260503031055 | 13 | 0 | 0.0 | 0.0 | 0.00 | 0.00 | 0.00 | 75 | 1019.9 |
| 20260503030554 | 13 | 0 | 0.0 | 0.0 | 0.00 | 0.00 | 0.00 | 76 | 1019.9 |
| 20260503030100 | 13 | 0 | 0.0 | 0.0 | 0.00 | 0.00 | 0.00 | 75 | 1019.8 |
| 20260503025555 | 14 | 0 | 0.0 | 0.0 | 0.00 | 0.00 | 0.00 | 74 | 1019.7 |
| 20260503025055 | 14 | 0 | 0.0 | 0.0 | 0.00 | 0.00 | 0.00 | 73 | 1019.5 |
| 20260503024602 | 14 | 0 | 0.0 | 0.0 | 0.00 | 0.00 | 0.00 | 75 | 1019.6 |
| 20260503024055 | 14 | 0 | 0.0 | 0.0 | 0.00 | 0.00 | 0.00 | 74 | 1019.6 |
| 20260503023556 | 14 | 0 | 0.0 | 0.0 | 0.00 | 0.00 | 0.00 | 74 | 1019.5 |
| 20260503023056 | 15 | 0 | 0.0 | 0.0 | 0.00 | 0.00 | 0.00 | 74 | 1019.5 |
| 20260503022555 | 15 | 0 | 0.0 | 0.0 | 0.00 | 0.00 | 0.00 | 75 | 1019.4 |
| 20260503022055 | 15 | 0 | 0.0 | 0.0 | 0.00 | 0.00 | 0.00 | 75 | 1019.5 |
| 20260503021609 | 15 | 0 | 0.0 | 0.0 | 0.00 | 0.00 | 0.00 | 75 | 1019.4 |
| 20260503021055 | 15 | 0 | 0.0 | 0.0 | 0.00 | 0.00 | 0.00 | 73 | 1019.2 |
| 20260503020555 | 15 | 0 | 0.0 | 0.0 | 0.00 | 0.00 | 0.00 | 72 | 1019.3 |
| 20260503015558 | 16 | 0 | 0.0 | 0.0 | 0.00 | 0.00 | 0.00 | 70 | 1019.3 |
| 20260503015057 | 16 | 0 | 0.0 | 0.0 | 0.00 | 0.00 | 0.00 | 70 | 1019.3 |
| 20260503014554 | 16 | 0 | 0.0 | 0.0 | 0.00 | 0.00 | 0.00 | 68 | 1019.3 |
| 20260503014055 | 16 | 0 | 0.0 | 0.0 | 0.00 | 0.00 | 0.00 | 68 | 1019.2 |